Regional Weather Roundup
Issued by NWS

Home | Current Version | Previous Version | Text Only | Print | Product List | Glossary Off
Versions: 1 2 3 4 5 6 7 8 9 10 11 12 13 14 15 16 17 18 19 20 21 22 23 24 25 26 27 28 29 30 31 32 33 34 35 36 37 38 39 40 41 42 43 44 45 46 47 48 49 50

000
ASUS43 KIND 241500
RWRIN

WEATHER ROUNDUP FOR INDIANA
NATIONAL WEATHER SERVICE INDIANAPOLIS IN
1100 AM EDT THU MAY 24 2018

NOTE: "FAIR" INDICATES FEW OR NO CLOUDS BELOW 12,000 FEET WITH NO
SIGNIFICANT WEATHER AND/OR OBSTRUCTIONS TO VISIBILITY.

* - STATION DOES NOT REPORT WEATHER SUCH AS PRECIPITATION OR FOG.

+ - STATION NOT QUALITY CONTROLLED BY THE NATIONAL WEATHER SERVICE.
    USE DATA WITH CAUTION...ESPECIALLY DEWPOINT AND RELATIVE
    HUMIDITY OBSERVATIONS.

INZ001>003-010>013-019-020-241600-
NORTHWEST INDIANA

CITY           SKY/WX    TMP DP  RH WIND       PRES   REMARKS
GARY /AIRPORT/ MOSUNNY   79  54  41 S8        30.21F
MICHIGAN CITY+ FAIR      77  52  41 S6        30.22F
MONTICELLO +   FAIR      76  49  39 E5        30.21F
RENSSELAER +   FAIR      77  39  25 S8        30.21F

$$

LMZ046-743>745-241600-
SOUTHERN LAKE MICHIGAN

STATION/POSITION TIME  TEMP    WIND        PRES    WAVE
                       AIR SEA DIR/SP/G            HT
                 (UTC) (F)     (DEG/KT/KT) (MB)    (FT)
BURNS HARBOR     1440   75     180/  7/ 11 1023.4F
MICHIGAN CITY    1410   72     180/ 11/ 13   N/A
5NW MICH CITY    1450   68 58   CALM  /  2   N/A     0

$$

INZ004-005-014>016-021>024-241600-
NORTH CENTRAL INDIANA

CITY           SKY/WX    TMP DP  RH WIND       PRES   REMARKS
ELKHART        FAIR      77  52  41 S7        30.24F
GOSHEN         FAIR      75  54  47 S7        30.24F
PERU/GRISSOM   FAIR      75  53  45 SE6       30.22F
SOUTH BEND     FAIR      76  54  46 S9        30.23F
WARSAW +       FAIR      73  54  49 CALM      30.24F

$$

INZ006>009-017-018-025>027-241600-
NORTHEAST INDIANA

CITY           SKY/WX    TMP DP  RH WIND       PRES   REMARKS
ANGOLA *+      FAIR      75  50  41 SE6       30.25S
FORT WAYNE     FAIR      75  52  44 SE6       30.25F
KENDALLVILLE + FAIR     N/A N/A N/A S7        30.26S

$$

INZ028-029-035-036-043>045-051>053-241600-
WEST CENTRAL INDIANA

CITY           SKY/WX    TMP DP  RH WIND       PRES   REMARKS
CRAWFORDSVL +  FAIR      74  55  52 SE6       30.22S
GREENCASTLE +  FAIR      73  54  49 CALM      30.23S
LAFAYETTE      FAIR      77  51  40 VRB5      30.21F
TERRE HAUTE    FAIR      77  57  50 SE8       30.20F

$$

INZ030>032-037>040-046>048-054>057-064-065-241600-
CENTRAL INDIANA

CITY           SKY/WX    TMP DP  RH WIND       PRES   REMARKS
ANDERSON       SUNNY     75  52  43 S6        30.24F
COLUMBUS       SUNNY     73  52  46 E9        30.22F
INDIANAPOLIS   FAIR      75  55  49 SE8       30.21F
-EAGLE CREEK   FAIR      74  55  51 SE6       30.21F
KOKOMO +       FAIR      74  57  55 S10       30.24F
MT COMFORT *+  FAIR      73  59  60 S8        30.23F
SHELBYVILLE    FAIR      76  53  44 E8        30.21F

$$

INZ033-034-041-042-049-050-058-059-241600-
EAST CENTRAL INDIANA

CITY           SKY/WX    TMP DP  RH WIND       PRES   REMARKS
MUNCIE         FAIR      77  52  41 VRB6      30.23F

$$

INZ060-061-067>069-081>083-085>088-241600-
SOUTHWEST INDIANA

CITY           SKY/WX    TMP DP  RH WIND       PRES   REMARKS
EVANSVILLE     FAIR      76  63  64 E7        30.18S
HUNTINGBURG +  CLOUDY    76  61  59 E8        30.18F

$$

INZ062-063-066-070>080-084-089>092-241600-
SOUTH CENTRAL AND SOUTHEAST INDIANA

CITY           SKY/WX    TMP DP  RH WIND       PRES   REMARKS
BLOOMINGTON    FAIR      74  58  57 SE10      30.21F
FRENCH LICK *+ FAIR      72  50  46 E6        30.20F
MADISON *+     FAIR      73  55  53 E7        30.23F
SEYMOUR +      FAIR      77  55  47 E8        30.21F

$$





USA.gov is the U.S. government's official web portal to all federal, state and local government web resources and services.